Flag for Pakistan Weather past 2 weeks in Sukkur, Sindh, Pakistan

Now
86 °F

Haze.


Feels Like: 95 °F
Forecast: 78 / 100 °F
Wind: 12 mph from Southeast

Location: Sukkur

Current Time: Sep 1, 2015 at 9:50:56 AM

Latest Report: Sep 1, 2015 at 9:00 AM


Visibility: 4 mi

Pressure: 29.59 "Hg

Humidity: 70%

Dew point: 75 °F

Location of SukkurLocation

Historic Weather in Sukkur — Graph

°F

Sukkur temperature yesterday

Maximum temperature yesterday: 100 °F (at 3:00 PM)
Minimum temperature yesterday: 82 °F (at 5:00 AM)
Average temperature yesterday: 91 °F

Past Weeks' High & Low Weather Summary

 TemperatureHumidityPressure
High108 °F (Aug 19, 5:00 PM)94% (Aug 23, 7:00 AM)29.68 "Hg (Aug 23, 7:00 AM)
Low79 °F (Aug 23, 7:00 AM)40% (Aug 19, 3:00 PM)29.45 "Hg (Aug 23, 4:00 PM)
Average93 °F64%29.54 "Hg
* Reported Aug 17 8:00 AM — Sep 1 8:00 AM, Sukkur, Weather by CustomWeather, © 2015

Note: Actual official high and low records may vary slightly from our data, if they occured in-between our weather recording intervals... More about our weather records

Advertising

Sukkur weather history for previous 24 hours

 ConditionsComfort  
Time TempWeatherWind HumidityBarometerVisibility
8:00 AM
Tue, Sep 1
82 °FHaze.7 mph79%29.59 "Hg3 mi
7:00 AM82 °FHaze.9 mph79%29.56 "Hg3 mi
6:00 AM82 °FHaze.14 mph79%29.53 "Hg3 mi
4:00 AM84 °FHaze.14 mph74%29.53 "Hg4 mi
1:00 AM88 °FHaze.14 mph70%29.56 "Hg4 mi
12:00 AM88 °FHaze.14 mph70%29.56 "Hg4 mi
11:00 PM
Mon, Aug 31
90 °FHaze.12 mph67%29.56 "Hg4 mi
10:00 PM91 °FHaze.9 mph67%29.56 "Hg3 mi
9:00 PM93 °FHaze.9 mph67%29.56 "Hg3 mi
8:00 PM93 °FHaze.9 mph67%29.56 "Hg3 mi
7:00 PM95 °FPassing clouds.9 mph63%29.56 "Hg3 mi
6:00 PM97 °FScattered clouds.7 mph56%29.53 "Hg4 mi
5:00 PM99 °FScattered clouds.7 mph53%29.50 "Hg4 mi
4:00 PM100 °FScattered clouds.12 mph45%29.53 "Hg4 mi
3:00 PM100 °FScattered clouds.12 mph45%29.56 "Hg4 mi
2:00 PM97 °FScattered clouds.12 mph56%29.59 "Hg4 mi
1:00 PM95 °FScattered clouds.12 mph56%29.62 "Hg4 mi
12:00 PM93 °FHaze.12 mph59%29.59 "Hg4 mi
11:30 AM93 °FHaze.12 mph59%29.59 "Hg4 mi
11:00 AM91 °FHaze.12 mph63%29.62 "Hg4 mi
10:00 AM90 °FScattered clouds.12 mph67%29.59 "Hg4 mi
9:00 AM88 °FScattered clouds.12 mph70%29.59 "Hg4 mi
Weather by CustomWeather, © 2015

See weather overviewHow to use our weather pages